EW4725 Weather Reports


time (UTC)temp
C
wind
direction
speed
KPH
gust
KPH
rain 1hr
cm
rain 24hr
cm
rain mn
cm
humidity
%
barometer
mb
20260502215816 21 283 8.0 11.3 0.00 0.00 0.00 66 1012.2
20260502215315 21 283 8.0 20.9 0.00 0.00 0.00 69 1012.2
20260502214815 21 328 11.3 17.7 0.00 0.00 0.00 67 1012.3
20260502214316 21 283 11.3 19.3 0.00 0.00 0.00 68 1012.3
20260502213836 21 283 8.0 14.5 0.00 0.00 0.00 67 1012.4
20260502213336 21 305 8.0 11.3 0.00 0.00 0.00 66 1012.5
20260502212816 21 260 6.4 9.7 0.00 0.00 0.00 66 1012.5
20260502212315 22 283 6.4 8.0 0.00 0.00 0.00 65 1012.6
20260502211816 22 283 6.4 8.0 0.00 0.00 0.00 66 1012.6
20260502211315 22 260 6.4 11.3 0.00 0.00 0.00 65 1012.7
20260502210815 22 215 4.8 9.7 0.00 0.00 0.00 66 1012.7
20260502210315 22 283 3.2 6.4 0.00 0.00 0.00 68 1012.7
20260502205816 21 238 3.2 8.0 0.00 0.00 0.00 68 1012.7
20260502205315 21 170 9.7 12.9 0.00 0.00 0.00 68 1012.7
20260502204835 21 148 4.8 9.7 0.00 0.00 0.00 68 1012.8
20260502204316 21 260 12.9 17.7 0.00 0.00 0.00 67 1012.8
20260502203816 21 283 8.0 11.3 0.00 0.00 0.00 67 1012.8
20260502203316 21 215 6.4 11.3 0.00 0.00 0.00 67 1012.8
20260502202836 21 238 4.8 9.7 0.00 0.00 0.00 69 1012.8
20260502202336 21 148 3.2 9.7 0.00 0.00 0.00 67 1012.8
20260502201815 21 215 6.4 8.0 0.00 0.00 0.00 67 1013.0
20260502201316 21 260 4.8 6.4 0.00 0.00 0.00 68 1013.2
20260502200815 21 260 6.4 9.7 0.00 0.00 0.00 69 1013.0
20260502200335 21 260 3.2 8.0 0.00 0.00 0.00 69 1013.2
20260502195816 21 215 4.8 6.4 0.00 0.00 0.00 70 1013.2
20260502195315 21 238 4.8 6.4 0.00 0.00 0.00 71 1013.3
20260502194817 21 238 3.2 6.4 0.00 0.00 0.00 71 1013.4
20260502194315 20 148 4.8 9.7 0.00 0.00 0.00 73 1013.5
20260502193815 20 305 6.4 8.0 0.00 0.00 0.00 74 1013.5
20260502193316 20 283 4.8 8.0 0.00 0.00 0.00 74 1013.7
20260502192816 20 238 6.4 14.5 0.00 0.00 0.00 74 1013.5
20260502192315 20 283 4.8 8.0 0.00 0.00 0.00 74 1013.6
20260502191815 19 125 1.6 3.2 0.00 0.00 0.00 75 1013.8
20260502191315 19 260 4.8 8.0 0.00 0.00 0.00 76 1013.9
20260502190815 19 283 4.8 6.4 0.00 0.00 0.00 76 1014.1
20260502190315 19 0.0 3.2 0.00 0.00 0.00 76 1014.2
20260502185815 19 215 3.2 4.8 0.00 0.00 0.00 78 1014.3
20260502185335 18 305 1.6 4.8 0.00 0.00 0.00 78 1014.3
20260502184815 18 215 1.6 3.2 0.00 0.00 0.00 79 1014.3
20260502184315 18 260 3.2 4.8 0.00 0.00 0.00 80 1014.3
20260502183815 18 238 3.2 8.0 0.00 0.00 0.00 80 1014.3
20260502183315 18 260 3.2 6.4 0.00 0.00 0.00 80 1014.4
20260502182315 17 125 1.6 3.2 0.00 0.00 0.00 82 1014.5
20260502181815 17 148 1.6 3.2 0.00 0.00 0.00 82 1014.4
20260502181335 17 125 3.2 4.8 0.00 0.00 0.00 82 1014.4
20260502180835 17 80 1.6 3.2 0.00 0.00 0.00 82 1014.4
20260502180315 17 58 3.2 4.8 0.00 0.00 0.00 82 1014.5
20260502170337 16 260 1.6 3.2 0.00 0.00 0.00 87 1015.0
20260502164317 16 0.0 1.6 0.00 0.00 0.00 88 1015.0
20260502163817 16 0.0 0.0 0.00 0.00 0.00 89 1014.9
20260502163337 16 0.0 0.0 0.00 0.00 0.00 89 1015.0
20260502162815 16 148 1.6 3.2 0.00 0.00 0.00 89 1015.1
20260502162317 16 0.0 1.6 0.00 0.00 0.00 89 1015.1
20260502161817 16 215 1.6 3.2 0.00 0.00 0.00 89 1015.1
20260502161317 16 0.0 0.0 0.00 0.00 0.00 89 1015.0
20260502160817 16 0.0 0.0 0.00 0.00 0.00 89 1015.1
20260502160317 16 148 1.6 3.2 0.00 0.00 0.00 89 1015.1
20260502152317 15 103 3.2 4.8 0.00 0.00 0.00 91 1014.9
20260502151817 15 125 3.2 3.2 0.00 0.00 0.00 91 1015.0
20260502151317 15 0.0 1.6 0.00 0.00 0.00 91 1014.8
20260502150817 15 125 1.6 1.6 0.00 0.00 0.00 91 1014.7
20260502150337 15 0.0 1.6 0.00 0.00 0.00 91 1014.6
20260502130317 15 170 1.6 1.6 0.00 0.00 0.00 91 1014.0
20260502123317 15 238 3.2 4.8 0.00 0.00 0.00 90 1013.7
20260502122816 15 170 1.6 3.2 0.00 0.00 0.00 90 1013.8
20260502122317 15 0.0 1.6 0.00 0.00 0.00 90 1013.8
20260502121816 15 283 1.6 3.2 0.00 0.00 0.00 90 1013.8
20260502121317 15 260 1.6 4.8 0.00 0.00 0.00 90 1013.7
20260502120837 15 0.0 1.6 0.00 0.00 0.00 91 1013.7
20260502120316 15 0.0 1.6 0.00 0.00 0.00 91 1013.7
20260502115817 15 0.0 0.0 0.00 0.00 0.00 91 1013.6
20260502115317 15 0.0 0.0 0.00 0.00 0.00 91 1013.6
20260502114816 15 0.0 1.6 0.00 0.00 0.00 91 1013.6
20260502114337 15 0.0 0.0 0.00 0.00 0.00 91 1013.5
20260502113837 15 0.0 0.0 0.00 0.00 0.00 91 1013.4
20260502113316 15 260 1.6 1.6 0.00 0.00 0.00 91 1013.4
20260502112836 15 0.0 1.6 0.00 0.00 0.00 91 1013.4
20260502112316 15 238 1.6 1.6 0.00 0.00 0.00 91 1013.4
20260502111816 15 0.0 1.6 0.00 0.00 0.00 91 1013.3
20260502111316 15 0.0 1.6 0.00 0.00 0.00 91 1013.4
20260502110816 15 0.0 1.6 0.00 0.00 0.00 91 1013.5
20260502110316 15 0.0 0.0 0.00 0.00 0.00 91 1013.5
20260502105837 15 0.0 0.0 0.00 0.00 0.00 91 1013.5
20260502105317 15 0.0 1.6 0.00 0.00 0.00 91 1013.4
20260502104837 15 0.0 0.0 0.00 0.00 0.00 91 1013.3
20260502104437 15 0.0 1.6 0.00 0.00 0.00 91 1013.3
20260502103817 15 0.0 0.0 0.00 0.00 0.00 91 1013.2
20260502103317 15 260 1.6 3.2 0.00 0.00 0.00 91 1013.1
20260502102816 14 0.0 1.6 0.00 0.00 0.00 91 1013.2
20260502102316 14 283 3.2 4.8 0.00 0.00 0.00 92 1013.2
20260502101817 14 283 1.6 3.2 0.00 0.00 0.00 92 1013.2
20260502101317 14 0.0 1.6 0.00 0.00 0.00 92 1013.1
20260502100816 14 0.0 0.0 0.00 0.00 0.00 92 1013.2
20260502100316 14 0.0 0.0 0.00 0.00 0.00 92 1013.2
20260502091317 13 0.0 0.0 0.00 0.00 0.00 93 1013.3
20260502090816 13 0.0 0.0 0.00 0.00 0.00 93 1013.3
20260502090316 13 0.0 0.0 0.00 0.00 0.00 93 1013.4
20260502071316 15 305 1.6 1.6 0.00 0.00 0.00 90 1014.1
20260502070816 15 0.0 1.6 0.00 0.00 0.00 90 1014.2
20260502070336 15 0.0 1.6 0.00 0.00 0.00 90 1014.1
20260502065816 15 0.0 0.0 0.00 0.00 0.00 90 1014.1
20260502065317 15 305 1.6 1.6 0.00 0.00 0.00 90 1014.1
20260502064817 15 0.0 0.0 0.00 0.00 0.00 89 1014.1
20260502064317 15 0.0 1.6 0.00 0.00 0.00 89 1014.0
20260502063816 15 328 1.6 3.2 0.00 0.00 0.00 89 1014.0
20260502063317 15 305 1.6 3.2 0.00 0.00 0.00 89 1014.1
20260502062816 15 0.0 0.0 0.00 0.00 0.00 89 1014.1
20260502062316 15 0.0 0.0 0.00 0.00 0.00 89 1014.0
20260502061837 15 0.0 0.0 0.00 0.00 0.00 89 1013.9
20260502061317 15 0.0 1.6 0.00 0.00 0.00 89 1013.9
20260502060816 15 0.0 1.6 0.00 0.00 0.00 89 1013.9
20260502060316 15 305 1.6 3.2 0.00 0.00 0.00 89 1013.8
20260502055816 15 350 1.6 3.2 0.00 0.00 0.00 88 1013.8
20260502055317 15 13 1.6 3.2 0.00 0.00 0.00 88 1013.8
20260502054816 15 305 1.6 3.2 0.00 0.00 0.00 88 1013.8
20260502054337 15 305 1.6 3.2 0.00 0.00 0.00 88 1013.9
20260502053816 15 328 1.6 3.2 0.00 0.00 0.00 88 1013.9
20260502053316 15 0.0 1.6 0.00 0.00 0.00 88 1013.9
20260502052816 15 305 1.6 3.2 0.00 0.00 0.00 88 1013.9
20260502052316 15 0.0 1.6 0.00 0.00 0.00 88 1014.0
20260502051836 15 305 1.6 3.2 0.00 0.00 0.00 88 1013.9
20260502051316 15 260 4.8 6.4 0.00 0.00 0.00 88 1013.9
20260502050836 15 305 3.2 4.8 0.00 0.00 0.00 87 1014.0
20260502050317 15 283 4.8 8.0 0.00 0.00 0.00 87 1013.9
20260502045816 15 283 3.2 4.8 0.00 0.00 0.00 87 1013.8
20260502045316 16 283 4.8 6.4 0.00 0.00 0.00 87 1013.8
20260502044817 16 260 6.4 11.3 0.00 0.00 0.00 87 1013.8
20260502044316 16 283 1.6 3.2 0.00 0.00 0.00 87 1013.7
20260502043816 16 283 6.4 6.4 0.00 0.00 0.00 87 1013.6
20260502043316 16 238 4.8 8.0 0.00 0.00 0.00 87 1013.5
20260502042836 16 260 6.4 8.0 0.00 0.00 0.00 87 1013.5
20260502042316 16 283 6.4 8.0 0.00 0.00 0.00 86 1013.5
20260502041836 16 260 3.2 4.8 0.00 0.00 0.00 87 1013.5
20260502041336 16 283 4.8 6.4 0.00 0.00 0.00 86 1013.4
20260502040837 16 283 4.8 6.4 0.00 0.00 0.00 86 1013.4
20260502040316 16 283 6.4 11.3 0.00 0.00 0.00 86 1013.3
20260502035817 16 305 4.8 9.7 0.00 0.00 0.00 86 1013.2
20260502035316 16 283 6.4 9.7 0.00 0.00 0.00 86 1013.2
20260502034836 16 260 4.8 8.0 0.00 0.00 0.00 86 1013.1
20260502034317 16 305 6.4 11.3 0.00 0.00 0.00 86 1013.0
20260502033917 16 260 6.4 8.0 0.00 0.00 0.00 86 1012.9
20260502033336 16 283 4.8 6.4 0.00 0.00 0.00 86 1012.9
20260502032816 16 283 6.4 11.3 0.00 0.00 0.00 86 1012.8
20260502032316 16 260 6.4 9.7 0.00 0.00 0.00 86 1012.7
20260502031836 16 260 4.8 8.0 0.00 0.00 0.00 86 1012.6
20260502031316 16 305 4.8 8.0 0.00 0.00 0.00 85 1012.5
20260502030816 16 283 4.8 8.0 0.00 0.00 0.00 85 1012.5
20260502030316 16 260 6.4 12.9 0.00 0.00 0.00 85 1012.5
20260502025817 16 260 6.4 9.7 0.00 0.00 0.00 85 1012.5
20260502025316 16 260 6.4 9.7 0.00 0.00 0.00 85 1012.4
20260502024836 16 283 8.0 12.9 0.00 0.00 0.00 84 1012.4
20260502024336 16 283 3.2 6.4 0.00 0.00 0.00 85 1012.3
20260502023837 16 260 8.0 12.9 0.00 0.00 0.00 84 1012.3
20260502023316 16 283 6.4 9.7 0.00 0.00 0.00 84 1012.4
20260502022816 17 260 12.9 16.1 0.00 0.00 0.00 83 1012.4
20260502022316 17 283 6.4 9.7 0.00 0.00 0.00 83 1012.3
20260502021816 17 260 11.3 19.3 0.00 0.00 0.00 82 1012.2
20260502021316 17 260 8.0 12.9 0.00 0.00 0.00 81 1012.2
20260502020816 17 260 12.9 17.7 0.00 0.00 0.00 80 1012.0
20260502020316 17 283 12.9 22.5 0.00 0.00 0.00 79 1012.0
20260502015816 18 283 14.5 19.3 0.00 0.00 0.00 78 1011.9
20260502015316 18 283 9.7 12.9 0.00 0.00 0.00 78 1011.9
20260502014816 18 283 8.0 11.3 0.00 0.00 0.00 77 1011.8
20260502014336 18 260 11.3 16.1 0.00 0.00 0.00 78 1011.9
20260502013837 18 260 11.3 16.1 0.00 0.00 0.00 77 1011.8
20260502013336 18 260 8.0 14.5 0.00 0.00 0.00 76 1011.8
20260502012836 18 260 14.5 19.3 0.00 0.00 0.00 76 1011.8
20260502012316 18 260 9.7 16.1 0.00 0.00 0.00 76 1011.7
20260502011816 18 260 8.0 12.9 0.00 0.00 0.00 76 1011.6
20260502011316 19 260 12.9 19.3 0.00 0.00 0.00 75 1011.7
20260502010836 19 283 8.0 12.9 0.00 0.00 0.00 75 1011.7
20260502010356 19 283 14.5 20.9 0.00 0.00 0.00 74 1011.7
20260502005816 20 260 11.3 16.1 0.00 0.00 0.00 74 1011.7
20260502005457 20 260 9.7 12.9 0.00 0.00 0.00 75 1011.7
20260502004816 20 260 14.5 20.9 0.00 0.00 0.00 74 1011.7
20260502004416 20 260 11.3 19.3 0.00 0.00 0.00 74 1011.6
20260502003836 20 283 6.4 9.7 0.00 0.00 0.00 74 1011.7
20260502003316 20 260 12.9 19.3 0.00 0.00 0.00 73 1011.6
20260502002816 20 283 14.5 19.3 0.00 0.00 0.00 72 1011.6
20260502002316 20 283 8.0 14.5 0.00 0.00 0.00 73 1011.6
20260502001816 20 283 16.1 20.9 0.00 0.00 0.00 72 1011.6
20260502001316 20 283 8.0 16.1 0.00 0.00 0.00 72 1011.6
20260502000836 20 283 11.3 19.3 0.00 0.00 0.00 70 1011.6
20260502000317 20 283 12.9 17.7 0.00 0.00 0.00 69 1011.6
20260501235816 20 260 11.3 17.7 0.00 0.00 0.00 68 1011.6
20260501235316 21 260 12.9 17.7 0.00 0.00 0.00 68 1011.7
20260501234816 21 283 11.3 16.1 0.00 0.00 0.00 67 1011.8
20260501234336 21 260 11.3 17.7 0.00 0.00 0.00 66 1011.8
20260501233816 21 283 11.3 16.1 0.00 0.00 0.00 65 1011.8
20260501233316 21 283 9.7 16.1 0.00 0.00 0.00 65 1011.8
20260501232816 21 305 11.3 17.7 0.00 0.00 0.00 65 1011.7
20260501232316 21 283 11.3 17.7 0.00 0.00 0.00 64 1011.7
20260501231816 21 260 11.3 16.1 0.00 0.00 0.00 65 1011.7
20260501231316 22 260 11.3 16.1 0.00 0.00 0.00 63 1011.7
20260501230816 22 260 9.7 12.9 0.00 0.00 0.00 62 1011.7
20260501230316 22 283 8.0 12.9 0.00 0.00 0.00 62 1011.7
20260501225816 22 305 6.4 9.7 0.00 0.00 0.00 62 1011.7
20260501225316 22 260 12.9 19.3 0.00 0.00 0.00 62 1011.8
20260501224816 22 260 9.7 14.5 0.00 0.00 0.00 62 1011.8
20260501224316 22 260 8.0 9.7 0.00 0.00 0.00 62 1011.9
20260501223816 22 260 4.8 12.9 0.00 0.00 0.00 61 1012.0
20260501223315 22 193 4.8 9.7 0.00 0.00 0.00 63 1012.0
20260501222816 22 148 9.7 14.5 0.00 0.00 0.00 62 1012.0
20260501222316 22 148 9.7 12.9 0.00 0.00 0.00 61 1012.1
20260501221816 22 125 6.4 9.7 0.00 0.00 0.00 60 1012.3
20260501221336 23 170 4.8 9.7 0.00 0.00 0.00 60 1012.4
20260501220836 22 215 6.4 9.7 0.00 0.00 0.00 61 1012.3
20260501220315 22 148 6.4 8.0 0.00 0.00 0.00 61 1012.4